Regional Weather Roundup
Issued by NWS Green Bay, WI

Home | Current Version | Previous Version | Graphics & Text | Print | Product List | Glossary Off
Versions: 1 2 3 4 5 6 7 8 9 10 11 12 13 14 15 16 17 18 19 20 21 22 23 24 25 26 27 28 29 30 31 32 33 34 35 36 37 38 39 40 41 42 43 44 45 46 47 48 49 50

000
ASUS43 KGRB 300610
RWRGRB

NORTH-CENTRAL AND NORTHEAST WISCONSIN REGIONAL WEATHER ROUNDUP
NATIONAL WEATHER SERVICE GREEN BAY WI
100 AM CDT THU OCT 30 2014

WIZ005-009-010>012-018-019-300700-
NORTH CENTRAL WISCONSIN

CITY           SKY/WX    TMP DP  RH WIND       PRES   REMARKS
IRONWOOD       CLOUDY    37  34  87 S5        30.04S
MANITOWISH WTR CLOUDY    36  32  87 SW5       30.05F
ARBOR VITAE    CLOUDY    37  33  82 CALM      30.05F
EAGLE RIVER    CLOUDY    37  30  75 CALM      30.05S
LAND O LAKES   CLOUDY    38  32  81 W3        30.06S
RHINELANDER    CLOUDY    37  31  78 W5        30.06F
PHILLIPS       CLOUDY    37  32  82 SW3       30.06S
ANTIGO         PTCLDY    31  31  99 CALM      30.07S
TOMAHAWK       CLOUDY    35  31  85 CALM      30.07S
MERRILL        MOCLDY    32  31  99 CALM      30.08S
$$

WIZ013-073-300700-
NORTHEAST WISCONSIN

CITY           SKY/WX    TMP DP  RH WIND       PRES   REMARKS
IRON MOUNTAIN  CLOUDY    39  33  79 CALM      30.05F
MARINETTE      CLOUDY    43  32  65 CALM      30.09F
OCONTO         CLOUDY    40  35  84 CALM      30.09F
$$

WIZ017-030-035>037-045-300700-
CENTRAL WISCONSIN

CITY           SKY/WX    TMP DP  RH WIND       PRES   REMARKS
MEDFORD        PTCLDY    31  30  96 CALM      30.07S
WAUSAU         MOCLDY    34  31  88 CALM      30.08S
MOSINEE        PTCLDY    32  32 100 CALM      30.10S
MARSHFIELD     PTCLDY    32  30  92 CALM      30.09S
WISC RAPIDS    PTCLDY    30  28  92 CALM      30.11S
STEVENS POINT  PTCLDY    28  27  95 CALM      30.10S
WAUPACA        PTCLDY    33  31  96 CALM      30.10F
SHAWANO        PTCLDY    37  34  86 CALM      30.10S
CLINTONVILLE   PTCLDY    34  32  93 CALM      30.10S
$$

WIZ038-039-048-051-300700-
FOX VALLEY

CITY           SKY/WX    TMP DP  RH WIND       PRES   REMARKS
NWS GREEN BAY  PTCLDY    42  34  73 CALM      30.10F
APPLETON       PTCLDY    36  32  87 W6        30.10F
OSHKOSH        CLEAR     32  29  88 CALM      30.10F
FOND DU LAC    CLEAR     31  28  89 CALM      30.11F
$$

WIZ022-050-052-300700-
EAST CENTRAL WISCONSIN

CITY           SKY/WX    TMP DP  RH WIND       PRES   REMARKS
STURGEON BAY   CLOUDY    43  36  75 N6        30.10S
MANITOWOC      CLOUDY    43  36  76 W3        30.11S
SHEBOYGAN      CLEAR     36  31  82 CALM      30.12S
$$

LMZ563-521-522-541>543-300700-
LAKESHORE

STATION/POSITION TIME  TEMP    WIND        PRES    VSBY  WAVE
                       AIR SEA DIR/SP/G                  HT/PER
                 (UTC) (F)     (DEG/KT/KT) (MB)    (MI)  (FT/S)
SHEBOYGAN LKSHOR 0600   41 50  260/  6/  7 1020.6R
KEWAUNEE LKSHORE 0600   45     290/  3/  4 1018.4S
NORTHPORT PIER   0600   43      30/  4/  5 1019.0S
N MID LAKE BUOY  0600   43 51  350/  6/  8 1019.4F         1/ 4
CHAMBERS ISLAND  0600   44     280/  3/  6 1019.3S
MENOMINEE LKSHOR 0600   43     300/  5/  8 1019.8S
$$



USA.gov is the U.S. government's official web portal to all federal, state and local government web resources and services.